When you browse on this site, cookies collect data to enhance your experience and personalize the content and advertising you see.
Visit our Privacy Policy to learn more. By continuing to use the site, you agree to this use of cookies and data.
  • In Hungary
  • List of Countries
  • For 7 days
  • Water Temperature
  • Satellite Maps
  • Weather Map
  • News
  • Weather Widgets
  • user-avatar
    Login

    Hourly Weather Lubniewice

    Today, 17 June, Monday

    Time Temperature Precipitation Wind Pressure Humidity
    00:00 +15°C° 0 mm 1 mps 762 mmHg 84%
    01:00 +15°C° 0 mm 1 mps 762 mmHg 85%
    02:00 +15°C° 0 mm 1 mps 762 mmHg 84%
    03:00 +13°C° 0 mm 0 mps 762 mmHg 83%
    04:00 +13°C° 0 mm 0 mps 762 mmHg 82%
    05:00 +15°C° 0 mm 0 mps 762 mmHg 74%
    06:00 +17°C° 0 mm 0 mps 762 mmHg 67%
    07:00 +19°C° 0 mm 0 mps 762 mmHg 59%
    08:00 +21°C° 0 mm 0 mps 762 mmHg 53%
    09:00 +22°C° 0 mm 0 mps 762 mmHg 48%
    10:00 +26°C° 0 mm 1 mps 762 mmHg 42%
    11:00 +27°C° 0 mm 1 mps 762 mmHg 41%
    12:00 +27°C° 0 mm 1 mps 762 mmHg 40%
    13:00 +28°C° 0 mm 1 mps 762 mmHg 39%
    14:00 +28°C° 0 mm 1 mps 762 mmHg 40%
    15:00 +28°C° 0 mm 2 mps 761 mmHg 40%
    16:00 +27°C° 0 mm 2 mps 761 mmHg 41%
    17:00 +26°C° 0 mm 2 mps 761 mmHg 47%
    18:00 +25°C° 0 mm 2 mps 761 mmHg 53%
    19:00 +24°C° 0 mm 2 mps 761 mmHg 59%
    20:00 +23°C° 0 mm 2 mps 761 mmHg 63%
    21:00 +20°C° 0 mm 2 mps 761 mmHg 67%
    22:00 +20°C° 0 mm 1 mps 761 mmHg 71%
    23:00 +19°C° 0 mm 1 mps 761 mmHg 73%

    Tomorrow, 18 June, Tuesday

    Time Temperature Precipitation Wind Pressure Humidity
    00:00 +19°C° 0 mm 1 mps 761 mmHg 75%
    01:00 +18°C° 0 mm 1 mps 761 mmHg 77%
    02:00 +17°C° 0 mm 2 mps 761 mmHg 79%
    03:00 +16°C° 0 mm 2 mps 761 mmHg 82%
    04:00 +16°C° 0 mm 2 mps 760 mmHg 84%
    05:00 +17°C° 0 mm 2 mps 760 mmHg 75%
    06:00 +19°C° 0 mm 3 mps 760 mmHg 66%
    07:00 +20°C° 0 mm 3 mps 760 mmHg 58%
    08:00 +22°C° 0 mm 4 mps 760 mmHg 53%
    09:00 +23°C° 0 mm 4 mps 760 mmHg 49%
    10:00 +26°C° 0 mm 4 mps 760 mmHg 45%
    11:00 +26°C° 0 mm 4 mps 759 mmHg 45%
    12:00 +27°C° 0 mm 5 mps 759 mmHg 46%
    13:00 +28°C° 0 mm 5 mps 758 mmHg 47%
    14:00 +28°C° 0 mm 4 mps 758 mmHg 49%
    15:00 +28°C° 0 mm 4 mps 758 mmHg 50%
    16:00 +28°C° 0 mm 4 mps 757 mmHg 52%
    17:00 +27°C° 0 mm 4 mps 757 mmHg 57%
    18:00 +26°C° 0 mm 4 mps 757 mmHg 62%
    19:00 +25°C° 0 mm 4 mps 756 mmHg 67%
    20:00 +22°C° 0 mm 3 mps 756 mmHg 72%
    21:00 +21°C° 0 mm 3 mps 757 mmHg 77%
    22:00 +20°C° 0 mm 2 mps 757 mmHg 81%
    23:00 +19°C° 0 mm 2 mps 756 mmHg 84%

    Day after tomorrow, 19 June, Wednesday

    Time Temperature Precipitation Wind Pressure Humidity
    00:00 +19°C° 0 mm 2 mps 756 mmHg 87%
    01:00 +18°C° 0 mm 2 mps 756 mmHg 90%
    02:00 +18°C° 0 mm 2 mps 755 mmHg 92%
    03:00 +18°C° 0 mm 2 mps 755 mmHg 93%
    04:00 +18°C° 0 mm 2 mps 755 mmHg 95%
    05:00 +19°C° 0 mm 2 mps 755 mmHg 89%
    06:00 +21°C° 0 mm 2 mps 754 mmHg 83%
    07:00 +23°C° 0 mm 2 mps 754 mmHg 77%
    08:00 +25°C° 0 mm 2 mps 754 mmHg 71%
    09:00 +26°C° 0 mm 2 mps 754 mmHg 65%
    10:00 +28°C° 0 mm 2 mps 754 mmHg 58%
    11:00 +29°C° 0 mm 1 mps 754 mmHg 54%
    12:00 +30°C° 0 mm 1 mps 753 mmHg 49%
    13:00 +30°C° 0 mm 1 mps 753 mmHg 44%
    14:00 +31°C° 0 mm 1 mps 753 mmHg 42%
    15:00 +31°C° 0 mm 1 mps 752 mmHg 40%
    16:00 +31°C° 0 mm 1 mps 752 mmHg 38%
    17:00 +30°C° 0 mm 1 mps 752 mmHg 44%
    18:00 +29°C° 0 mm 1 mps 752 mmHg 50%
    19:00 +28°C° 0 mm 1 mps 751 mmHg 56%
    20:00 +26°C° 0 mm 2 mps 752 mmHg 61%
    21:00 +25°C° 0 mm 2 mps 752 mmHg 66%
    22:00 +23°C° 0 mm 2 mps 752 mmHg 72%
    23:00 +23°C° 0 mm 2 mps 752 mmHg 73%

    20 June, Thursday

    Time Temperature Precipitation Wind Pressure Humidity
    00:00 +21°C° 0 mm 2 mps 752 mmHg 74%
    01:00 +20°C° 0 mm 2 mps 752 mmHg 76%
    02:00 +20°C° 0 mm 2 mps 752 mmHg 79%
    03:00 +20°C° 0 mm 1 mps 752 mmHg 82%
    04:00 +19°C° 0 mm 1 mps 752 mmHg 85%
    05:00 +21°C° 0 mm 1 mps 753 mmHg 80%
    06:00 +23°C° 0 mm 2 mps 753 mmHg 74%
    07:00 +24°C° 0 mm 3 mps 753 mmHg 69%
    08:00 +25°C° 0 mm 3 mps 754 mmHg 64%
    09:00 +27°C° 0 mm 3 mps 754 mmHg 59%
    10:00 +28°C° 0 mm 3 mps 754 mmHg 54%
    11:00 +29°C° 0 mm 3 mps 754 mmHg 52%
    12:00 +29°C° 0 mm 3 mps 754 mmHg 50%
    13:00 +30°C° 0 mm 3 mps 754 mmHg 48%
    14:00 +29°C° 0.1 mm 4 mps 755 mmHg 48%
    15:00 +29°C° 0.1 mm 4 mps 755 mmHg 49%
    16:00 +28°C° 0.1 mm 4 mps 755 mmHg 50%
    17:00 +27°C° 0 mm 4 mps 755 mmHg 58%
    18:00 +25°C° 0 mm 3 mps 755 mmHg 66%
    19:00 +24°C° 0 mm 3 mps 756 mmHg 74%
    20:00 +22°C° 0.1 mm 3 mps 756 mmHg 78%
    21:00 +21°C° 0.1 mm 2 mps 756 mmHg 83%
    22:00 +21°C° 0.1 mm 2 mps 756 mmHg 88%
    23:00 +20°C° 0.1 mm 2 mps 756 mmHg 88%

    21 June, Friday

    Time Temperature Precipitation Wind Pressure Humidity
    00:00 +19°C° 0.1 mm 2 mps 756 mmHg 88%
    01:00 +19°C° 0.1 mm 3 mps 756 mmHg 88%
    02:00 +18°C° 0 mm 2 mps 756 mmHg 88%
    03:00 +18°C° 0 mm 2 mps 756 mmHg 88%
    04:00 +17°C° 0 mm 2 mps 756 mmHg 89%
    05:00 +18°C° 0 mm 2 mps 756 mmHg 86%
    06:00 +19°C° 0 mm 2 mps 756 mmHg 83%
    07:00 +20°C° 0 mm 2 mps 756 mmHg 80%
    08:00 +21°C° 0.3 mm 2 mps 756 mmHg 75%
    09:00 +24°C° 0.3 mm 2 mps 756 mmHg 70%
    10:00 +25°C° 0.3 mm 2 mps 756 mmHg 65%
    11:00 +26°C° 0.9 mm 2 mps 756 mmHg 63%
    12:00 +27°C° 0.9 mm 1 mps 756 mmHg 61%
    13:00 +28°C° 0.9 mm 1 mps 755 mmHg 59%
    14:00 +28°C° 0.1 mm 1 mps 755 mmHg 57%
    15:00 +28°C° 0.1 mm 1 mps 755 mmHg 55%
    16:00 +28°C° 0.1 mm 1 mps 755 mmHg 54%
    17:00 +27°C° 0.2 mm 1 mps 755 mmHg 60%
    18:00 +26°C° 0.2 mm 1 mps 755 mmHg 67%
    19:00 +25°C° 0.2 mm 1 mps 755 mmHg 74%
    20:00 +24°C° 0.3 mm 1 mps 755 mmHg 79%
    21:00 +23°C° 0.3 mm 1 mps 755 mmHg 83%
    22:00 +20°C° 0.3 mm 2 mps 756 mmHg 87%
    23:00 +20°C° 0.1 mm 2 mps 756 mmHg 89%

    22 June, Saturday

    Time Temperature Precipitation Wind Pressure Humidity
    00:00 +19°C° 0.1 mm 2 mps 756 mmHg 91%
    01:00 +19°C° 0.1 mm 2 mps 756 mmHg 93%
    02:00 +18°C° 0 mm 3 mps 756 mmHg 93%
    03:00 +18°C° 0 mm 4 mps 756 mmHg 93%
    04:00 +17°C° 0 mm 4 mps 756 mmHg 92%
    05:00 +17°C° 0.2 mm 4 mps 756 mmHg 91%
    06:00 +17°C° 0.2 mm 4 mps 756 mmHg 90%
    07:00 +17°C° 0.2 mm 4 mps 756 mmHg 89%
    08:00 +18°C° 0.7 mm 4 mps 756 mmHg 90%
    09:00 +18°C° 0.7 mm 4 mps 756 mmHg 91%
    10:00 +18°C° 0.7 mm 4 mps 756 mmHg 92%
    11:00 +16°C° 1.4 mm 5 mps 757 mmHg 92%
    12:00 +16°C° 1.4 mm 5 mps 757 mmHg 93%
    13:00 +16°C° 1.4 mm 5 mps 757 mmHg 94%
    14:00 +15°C° 1.6 mm 6 mps 757 mmHg 94%
    15:00 +15°C° 1.6 mm 6 mps 757 mmHg 94%
    16:00 +14°C° 1.6 mm 6 mps 756 mmHg 94%
    17:00 +14°C° 1.1 mm 6 mps 757 mmHg 94%
    18:00 +14°C° 1.1 mm 6 mps 757 mmHg 94%
    19:00 +13°C° 1.1 mm 6 mps 757 mmHg 94%
    20:00 +13°C° 1.5 mm 5 mps 757 mmHg 94%
    21:00 +13°C° 1.5 mm 5 mps 758 mmHg 94%
    22:00 +13°C° 1.5 mm 5 mps 758 mmHg 94%
    23:00 +13°C° 2.4 mm 5 mps 758 mmHg 94%
    Show more